Skip Page Navigation
NASA JPL Caltech
NASA Logo - Jet Propulsion Laboratory + View the NASA Portal
+ Near-Earth Object (NEO) Program
Search JPL
JPL Home Earth Solar System Stars & Galaxies Technology
JPL Solar System Dynamics
BODIES ORBITS EPHEMERIDES TOOLS PHYSICAL DATA DISCOVERY FAQ SITE MAP
JPL Small-Body Database Browser
Search: [ help ]  
(2002 GO5)
Classification: Apollo [NEO, PHA]          SPK-ID: 3120887
Ephemeris | Orbit Diagram | Orbital Elements | Physical Parameters | Close-Approach Data ]

[ hide orbit diagram ]
Orbit Diagram
Note: Make sure you have Java enabled on your browser to see the applet. This applet is provided as a 3D orbit visualization tool. The applet was implemented using 2-body methods, and hence should not be used for determining accurate long-term trajectories (over several years or decades) or planetary encounter circumstances. For accurate long-term ephemerides, please instead use our Horizons system.
Orbit Viewer

Additional Notes: the orbits shown in the applet are color coded. The planets are white lines, and the asteroid/comet is a blue line. The bright white line indicates the portion of the orbit that is above the ecliptic plane, and the darker portion is below the ecliptic plane. Likewise for the asteroid/comet orbit, the light blue indicates the portion above the ecliptic plane, and the dark blue the portion below the ecliptic plane.

Orbit Viewer applet originally written and kindly provided by Osamu Ajiki (AstroArts), and further modified by Ron Baalke (JPL).


Orbital Elements at Epoch 2456400.5 (2013-Apr-18.0) TDB
Reference: JPL 34 (heliocentric ecliptic J2000)
 Element Value Uncertainty (1-sigma)   Units 
e .7669467510503239 4.8126e-07  
a 1.896585629605038 2.6403e-07 AU
q .442005442890721 9.7265e-07 AU
i 13.80848234702961 6.6669e-05 deg
node 23.04743777195034 1.9856e-05 deg
peri 64.89452595828544 4.8406e-05 deg
M 99.57769982892655 0.00028066 deg
tp 2456136.613787603448
(2012-Jul-28.11378760)
0.00068876 JED
period 954.0191892960578
2.61
0.00019921
5.454e-07
d
yr
n .3773509003164111 7.8797e-08 deg/d
Q 3.351165816319355 4.6652e-07 AU
  Orbit Determination Parameters
   # obs. used (total)      172  
   data-arc span      849 days (2.32 yr)  
   first obs. used      2002-04-11  
   last obs. used      2004-08-07  
   planetary ephem.      DE405  
   SB-pert. ephem.      SB405-CPV-2  
   condition code      1  
   fit RMS      .4985  
   data source      ORB  
   producer      Otto Matic  
   solution date      2011-Sep-14 19:45:36  

Additional Information
 Earth MOID = .0343076 AU 
 T_jup = 3.496 
[ show covariance matrix ]

Ephemeris | Orbit Diagram | Orbital Elements | Physical Parameters | Close-Approach Data ]

Physical Parameter Table
Parameter Symbol Value Units Sigma Reference Notes
absolute magnitude H 17.742 mag 1.1138 34 autocmod 2.5a

[ show close-approach data ]
Ephemeris | Orbit Diagram | Orbital Elements | Physical Parameters | Close-Approach Data ]
ABOUT SSD CREDITS/AWARDS PRIVACY/COPYRIGHT GLOSSARY LINKS
FirstGov 2013-May-26 03:03 UT
(server date/time)  
NASA Home Page
Site Manager:   Donald K. Yeomans
Webmaster  Alan B. Chamberlin